Rbgn^[z[y[W
メイン
   新天体発見情報
     Comet P/2016 BA14 = 2020 U6 (PANSTARRS)
投稿するにはまず登録を

フラット表示 前のトピック | 次のトピック
投稿者 スレッド
佐藤裕久
投稿日時: 2023-4-16 0:53
モデレータ
登録日: 2005-6-12
居住地: 日本
投稿: 2666
オンライン
Comet P/2016 BA14 = 2020 U6 (PANSTARRS)

R. Weryk (西オンタリオ大学,物理および天文学科)の通報によると、2020年10月、11月、
12月、2021年1月、HaleakalaにあるPan-STARRS2の1.8-m Ritchey-Chretien 反射望遠鏡
で得た画像からP/2016 BA14 (CBET 4257参照)を検出した。
MPC 109143のG. V. Williamsの予報に対する修正値は、Delta(T) = -0.01 dayであった。
彗星年表2021の佐藤裕久の参考軌道要素の修正値は、Delta(T) = +0.01 dayであった。

検出位置は次のとおり、

     2020 UT             R.A. (2000) Decl.       Mag.
     Oct. 17.51967    3 49 40.03   + 0 02 34.2   22.6
          18.42827    3 49 09.19   - 0 07 31.0   23.1
     Nov. 19.41512    3 19 10.41   - 5 54 02.0   22.3
          19.42639    3 19 09.61   - 5 54 07.3   22.8
          19.43766    3 19 08.81   - 5 54 13.4   22.1
     Dec.  7.33316    2 58 53.18   - 7 52 22.4   23.1
           7.34730    2 58 52.26   - 7 52 26.1   22.9
           7.36123    2 58 51.37   - 7 52 29.3   22.6

     2021 UT             R.A. (2000) Decl.       Mag.
     Jan.  5.28449    2 40 03.37   - 7 41 59.8   23.5
           5.29698    2 40 03.18   - 7 41 56.4   22.8
           5.30931    2 40 03.00   - 7 41 53.2   23.0
           5.32163    2 40 02.82   - 7 41 49.8   23.2

MPCの連結軌道要素、位置推算表は次のとおり、

Orbital elements:
    P/2016 BA14 (PANSTARRS)                                                     
Epoch 2023 Feb. 25.0 TT = JDT 2460000.5                                         
T 2021 June 16.94492 TT                                 Rudenko                 
q   1.0158684            (2000.0)            P               Q                  
n   0.18716580     Peri.  351.97139     -0.99134280     -0.13126701             
a   3.0268092      Node   180.51343     +0.13108299     -0.98820182             
e   0.6643765      Incl.   18.89675     +0.00752992     -0.07890586             
P   5.27                                                                        
From 1835 observations 2015 Dec. 1-2021 Jan. 5, mean residual 0".4.             
                                                                                
Ephemeris:
Date    TT    R. A. (2000) Decl.     Delta      r    Elong.  Phase   m1
2023 03 03    22 23 42.7 -02 45 59   5.5639  4.5860     8.5     1.8  31.3
...
2023 03 18    22 36 19.0 -01 41 06   5.5623  4.6260    18.0     3.8  31.4
...
2023 03 26    22 42 45.3 -01 06 01   5.5411  4.6466    23.9     5.0  31.4
...
2023 04 01    22 47 25.1 -00 39 50   5.5164  4.6617    28.4     5.8  31.4
2023 04 02    22 48 10.8 -00 35 30   5.5116  4.6641    29.1     6.0  31.4
2023 04 03    22 48 56.3 -00 31 10   5.5065  4.6666    29.9     6.1  31.4
...
2023 04 09    22 53 23.1 -00 05 23   5.4721  4.6813    34.5     7.0  31.4
...
2023 04 17    22 59 01.8 +00 28 14   5.4155  4.7003    40.7     8.0  31.4
...
2023 05 02    23 08 34.8 +01 27 29   5.2789  4.7345    52.6     9.7  31.4

(MPEC 2023-G14、CBET 5243、oaa-comet 4822)

フラット表示 前のトピック | 次のトピック

題名 投稿者 日時
 » Comet P/2016 BA14 = 2020 U6 (PANSTARRS) 佐藤裕久 2023-4-16 0:53

投稿するにはまず登録を
 
© 1999 Tsutomu Seki.